Location: Grandview
(34.8900°N, 117.1058°W)
Time: 10:17:20
(UTC-07:00)

OTV 5 (USA 277) - Pass Details

Date: 15 October 2017
Orbit: 404 x 417 km, 43.0° (Epoch: 07 September)

Event Time Altitude Azimuth Distance (km) Brightness Sun altitude
Rises 20:26:24 0° 300° (WNW) 2,353 ? -28.1°
Reaches altitude 10° 20:28:47 10° 315° (NW) 1,489 ? -28.5°
Enters shadow 20:29:15 13° 320° (NW) 1,342 ? -28.6°
